When you browse on this site, cookies collect data to enhance your experience and personalize the content and advertising you see.
Visit our Privacy Policy to learn more. By continuing to use the site, you agree to this use of cookies and data.
  • In Österreich
  • Länderverzeichnis
  • Für 7 Tage
  • Wassertemperatur
  • Wetterkarte
  • News
  • Widgets
  • user-avatar
    Anmelden

    Stündliche Wetter Bania Luka

    Heute, 28 Februar, Freitag

    Zeit Temperatur Niederschläge Wind Luftdruck Luftfeuchtigkeit
    00:00 0°C° 0 mm 5 m/S 706 mmHg 76%
    01:00 0°C° 0 mm 5 m/S 706 mmHg 77%
    02:00 0°C° 0.2 mm 5 m/S 705 mmHg 80%
    03:00 0°C° 0.2 mm 4 m/S 705 mmHg 84%
    04:00 +1°C° 0.2 mm 4 m/S 704 mmHg 87%
    05:00 +2°C° 0.9 mm 3 m/S 705 mmHg 87%
    06:00 +3°C° 0.9 mm 2 m/S 705 mmHg 88%
    07:00 +3°C° 0.9 mm 2 m/S 706 mmHg 88%
    08:00 +2°C° 0 mm 3 m/S 707 mmHg 80%
    09:00 +3°C° 0 mm 4 m/S 708 mmHg 71%
    10:00 +3°C° 0 mm 6 m/S 709 mmHg 63%
    11:00 +3°C° 0.2 mm 6 m/S 710 mmHg 63%
    12:00 +3°C° 0.2 mm 6 m/S 711 mmHg 64%
    13:00 +3°C° 0.2 mm 6 m/S 712 mmHg 64%
    14:00 +3°C° 0.2 mm 5 m/S 712 mmHg 64%
    15:00 +3°C° 0.2 mm 5 m/S 713 mmHg 64%
    16:00 +4°C° 0.2 mm 4 m/S 714 mmHg 64%
    17:00 +2°C° 0 mm 3 m/S 714 mmHg 68%
    18:00 +2°C° 0 mm 2 m/S 715 mmHg 72%
    19:00 +1°C° 0 mm 1 m/S 716 mmHg 77%
    20:00 +1°C° 0 mm 1 m/S 716 mmHg 77%
    21:00 0°C° 0 mm 1 m/S 716 mmHg 78%
    22:00 -1°C° 0 mm 0 m/S 717 mmHg 79%
    23:00 -1°C° 0 mm 0 m/S 717 mmHg 79%

    Morgen, 29 Februar, Samstag

    Zeit Temperatur Niederschläge Wind Luftdruck Luftfeuchtigkeit
    00:00 -1°C° 0 mm 1 m/S 717 mmHg 80%
    01:00 -1°C° 0 mm 1 m/S 717 mmHg 80%
    02:00 -1°C° 0 mm 1 m/S 717 mmHg 80%
    03:00 -1°C° 0 mm 1 m/S 716 mmHg 80%
    04:00 -1°C° 0 mm 1 m/S 716 mmHg 80%
    05:00 -3°C° 0 mm 2 m/S 716 mmHg 79%
    06:00 -3°C° 0 mm 2 m/S 716 mmHg 77%
    07:00 -3°C° 0 mm 2 m/S 716 mmHg 76%
    08:00 -1°C° 0 mm 2 m/S 716 mmHg 70%
    09:00 +3°C° 0 mm 2 m/S 716 mmHg 64%
    10:00 +5°C° 0 mm 2 m/S 716 mmHg 58%
    11:00 +6°C° 0 mm 2 m/S 715 mmHg 57%
    12:00 +7°C° 0 mm 2 m/S 715 mmHg 55%
    13:00 +8°C° 0 mm 2 m/S 715 mmHg 53%
    14:00 +7°C° 0 mm 2 m/S 714 mmHg 58%
    15:00 +7°C° 0 mm 2 m/S 713 mmHg 62%
    16:00 +6°C° 0 mm 2 m/S 713 mmHg 66%
    17:00 +5°C° 0 mm 2 m/S 712 mmHg 71%
    18:00 +3°C° 0 mm 2 m/S 712 mmHg 75%
    19:00 +1°C° 0 mm 3 m/S 712 mmHg 80%
    20:00 +1°C° 0 mm 3 m/S 712 mmHg 77%
    21:00 +1°C° 0 mm 3 m/S 711 mmHg 75%
    22:00 +1°C° 0 mm 3 m/S 711 mmHg 72%
    23:00 +1°C° 0 mm 3 m/S 711 mmHg 73%

    übermorgen, 1 März, Sonntag

    Zeit Temperatur Niederschläge Wind Luftdruck Luftfeuchtigkeit
    00:00 +1°C° 0 mm 3 m/S 711 mmHg 73%
    01:00 +1°C° 0 mm 3 m/S 711 mmHg 73%
    02:00 +1°C° 0 mm 3 m/S 711 mmHg 74%
    03:00 +1°C° 0 mm 3 m/S 711 mmHg 75%
    04:00 +2°C° 0 mm 3 m/S 711 mmHg 76%
    05:00 +2°C° 0 mm 3 m/S 711 mmHg 78%
    06:00 +2°C° 0 mm 3 m/S 711 mmHg 81%
    07:00 +2°C° 0 mm 3 m/S 711 mmHg 83%
    08:00 +4°C° 0 mm 3 m/S 711 mmHg 81%
    09:00 +5°C° 0 mm 3 m/S 711 mmHg 79%
    10:00 +8°C° 0 mm 3 m/S 711 mmHg 77%
    11:00 +7°C° 0 mm 4 m/S 711 mmHg 77%
    12:00 +8°C° 0 mm 4 m/S 710 mmHg 77%
    13:00 +10°C° 0 mm 4 m/S 710 mmHg 77%
    14:00 +8°C° 0.1 mm 4 m/S 709 mmHg 79%
    15:00 +9°C° 0.1 mm 3 m/S 709 mmHg 81%
    16:00 +8°C° 0.1 mm 3 m/S 708 mmHg 84%
    17:00 +8°C° 0.1 mm 3 m/S 708 mmHg 86%
    18:00 +7°C° 0.1 mm 2 m/S 708 mmHg 88%
    19:00 +7°C° 0.1 mm 2 m/S 708 mmHg 91%
    20:00 +7°C° 0.3 mm 2 m/S 707 mmHg 91%
    21:00 +7°C° 0.3 mm 2 m/S 707 mmHg 91%
    22:00 +7°C° 0.3 mm 2 m/S 706 mmHg 92%
    23:00 +7°C° 0.6 mm 2 m/S 706 mmHg 92%

    2 März, Montag

    Zeit Temperatur Niederschläge Wind Luftdruck Luftfeuchtigkeit
    00:00 +8°C° 0.6 mm 2 m/S 705 mmHg 92%
    01:00 +8°C° 0.6 mm 3 m/S 704 mmHg 93%
    02:00 +8°C° 0.7 mm 3 m/S 704 mmHg 92%
    03:00 +8°C° 0.7 mm 3 m/S 704 mmHg 92%
    04:00 +8°C° 0.7 mm 3 m/S 704 mmHg 91%
    05:00 +8°C° 0.5 mm 3 m/S 704 mmHg 90%
    06:00 +7°C° 0.5 mm 3 m/S 704 mmHg 89%
    07:00 +7°C° 0.5 mm 3 m/S 704 mmHg 88%
    08:00 +7°C° 0.2 mm 3 m/S 705 mmHg 84%
    09:00 +7°C° 0.2 mm 4 m/S 706 mmHg 80%
    10:00 +8°C° 0.2 mm 4 m/S 706 mmHg 76%
    11:00 +9°C° 0.2 mm 5 m/S 706 mmHg 73%
    12:00 +9°C° 0.2 mm 5 m/S 707 mmHg 70%
    13:00 +10°C° 0.2 mm 6 m/S 707 mmHg 66%
    14:00 +9°C° 0 mm 5 m/S 707 mmHg 68%
    15:00 +10°C° 0 mm 4 m/S 706 mmHg 69%
    16:00 +10°C° 0 mm 4 m/S 706 mmHg 71%
    17:00 +9°C° 0 mm 3 m/S 706 mmHg 74%
    18:00 +8°C° 0 mm 3 m/S 706 mmHg 77%
    19:00 +7°C° 0 mm 3 m/S 706 mmHg 80%
    20:00 +7°C° 0.2 mm 3 m/S 706 mmHg 82%
    21:00 +7°C° 0.2 mm 3 m/S 705 mmHg 84%
    22:00 +7°C° 0.2 mm 3 m/S 705 mmHg 86%
    23:00 +7°C° 1.6 mm 3 m/S 704 mmHg 87%

    3 März, Dienstag

    Zeit Temperatur Niederschläge Wind Luftdruck Luftfeuchtigkeit
    00:00 +7°C° 1.6 mm 3 m/S 703 mmHg 89%
    01:00 +7°C° 1.6 mm 3 m/S 703 mmHg 90%
    02:00 +5°C° 1.3 mm 3 m/S 702 mmHg 91%
    03:00 +5°C° 1.3 mm 3 m/S 701 mmHg 92%
    04:00 +6°C° 1.3 mm 2 m/S 701 mmHg 93%
    05:00 +6°C° 1.3 mm 2 m/S 701 mmHg 94%
    06:00 +6°C° 1.3 mm 1 m/S 700 mmHg 94%
    07:00 +5°C° 1.3 mm 0 m/S 700 mmHg 95%
    08:00 +6°C° 1.8 mm 1 m/S 701 mmHg 96%
    09:00 +6°C° 1.8 mm 1 m/S 701 mmHg 96%
    10:00 +6°C° 1.8 mm 1 m/S 702 mmHg 97%
    11:00 +5°C° 0.5 mm 2 m/S 703 mmHg 96%
    12:00 +5°C° 0.5 mm 2 m/S 703 mmHg 96%
    13:00 +5°C° 0.5 mm 2 m/S 704 mmHg 95%
    14:00 +5°C° 0.1 mm 2 m/S 704 mmHg 95%
    15:00 +4°C° 0.1 mm 2 m/S 704 mmHg 95%
    16:00 +4°C° 0.1 mm 2 m/S 705 mmHg 95%
    17:00 +4°C° 0.1 mm 2 m/S 705 mmHg 95%
    18:00 +4°C° 0.1 mm 2 m/S 706 mmHg 95%
    19:00 +3°C° 0.1 mm 2 m/S 707 mmHg 95%
    20:00 +4°C° 0.1 mm 1 m/S 707 mmHg 95%
    21:00 +4°C° 0.1 mm 1 m/S 707 mmHg 95%
    22:00 +4°C° 0.1 mm 1 m/S 708 mmHg 95%
    23:00 +4°C° 0.1 mm 1 m/S 708 mmHg 95%

    4 März, Mittwoch

    Zeit Temperatur Niederschläge Wind Luftdruck Luftfeuchtigkeit
    00:00 +3°C° 0.1 mm 1 m/S 708 mmHg 95%
    01:00 +3°C° 0.1 mm 1 m/S 708 mmHg 96%
    02:00 +3°C° 0 mm 1 m/S 708 mmHg 95%
    03:00 +3°C° 0 mm 1 m/S 708 mmHg 95%
    04:00 +2°C° 0 mm 1 m/S 708 mmHg 94%
    05:00 +2°C° 0 mm 1 m/S 708 mmHg 93%
    06:00 +2°C° 0 mm 1 m/S 708 mmHg 92%
    07:00 +2°C° 0 mm 1 m/S 708 mmHg 91%
    08:00 +4°C° 0 mm 1 m/S 708 mmHg 83%
    09:00 +5°C° 0 mm 1 m/S 708 mmHg 76%
    10:00 +7°C° 0 mm 1 m/S 709 mmHg 68%
    11:00 +7°C° 0 mm 0 m/S 708 mmHg 66%
    12:00 +8°C° 0 mm 0 m/S 708 mmHg 64%
    13:00 +9°C° 0 mm 0 m/S 708 mmHg 62%
    14:00 +9°C° 0 mm 0 m/S 707 mmHg 62%
    15:00 +8°C° 0 mm 0 m/S 707 mmHg 63%
    16:00 +8°C° 0 mm 0 m/S 706 mmHg 63%
    17:00 +7°C° 0 mm 0 m/S 706 mmHg 68%
    18:00 +7°C° 0 mm 1 m/S 706 mmHg 73%
    19:00 +6°C° 0 mm 1 m/S 706 mmHg 77%
    20:00 +5°C° 0 mm 1 m/S 705 mmHg 79%
    21:00 +5°C° 0 mm 1 m/S 705 mmHg 81%
    22:00 +4°C° 0 mm 1 m/S 705 mmHg 83%
    23:00 +4°C° 0 mm 1 m/S 705 mmHg 84%
    Mehr zeigen